When you browse on this site, cookies collect data to enhance your experience and personalize the content and advertising you see.
Visit our Privacy Policy to learn more. By continuing to use the site, you agree to this use of cookies and data.
  • In Österreich
  • Länderverzeichnis
  • Für 7 Tage
  • Wassertemperatur
  • Satellitenkarten
  • Wetterkarte
  • News
  • Widgets
  • user-avatar
    Anmelden

    Stündliche Wetter Sherpur

    Heute, 22 April, Montag

    Zeit Temperatur Niederschläge Wind Luftdruck Luftfeuchtigkeit
    00:00 +16°C° 0.1 mm 1 m/S 609 mmHg 45%
    01:00 +15°C° 0.1 mm 1 m/S 609 mmHg 47%
    02:00 +15°C° 0.1 mm 1 m/S 609 mmHg 48%
    03:00 +14°C° 0 mm 1 m/S 609 mmHg 48%
    04:00 +13°C° 0 mm 0 m/S 609 mmHg 48%
    05:00 +12°C° 0 mm 0 m/S 608 mmHg 49%
    06:00 +15°C° 0 mm 1 m/S 609 mmHg 44%
    07:00 +16°C° 0 mm 1 m/S 610 mmHg 40%
    08:00 +18°C° 0 mm 1 m/S 610 mmHg 35%
    09:00 +19°C° 0 mm 1 m/S 611 mmHg 33%
    10:00 +20°C° 0 mm 1 m/S 611 mmHg 31%
    11:00 +22°C° 0 mm 1 m/S 611 mmHg 29%
    12:00 +21°C° 0 mm 2 m/S 611 mmHg 27%
    13:00 +23°C° 0 mm 2 m/S 611 mmHg 26%
    14:00 +24°C° 0 mm 2 m/S 611 mmHg 24%
    15:00 +24°C° 0 mm 2 m/S 611 mmHg 23%
    16:00 +24°C° 0 mm 3 m/S 611 mmHg 23%
    17:00 +24°C° 0 mm 3 m/S 611 mmHg 22%
    18:00 +22°C° 0 mm 3 m/S 611 mmHg 26%
    19:00 +20°C° 0 mm 3 m/S 610 mmHg 29%
    20:00 +19°C° 0 mm 2 m/S 610 mmHg 33%
    21:00 +18°C° 0 mm 2 m/S 610 mmHg 35%
    22:00 +17°C° 0 mm 2 m/S 610 mmHg 38%
    23:00 +18°C° 0 mm 1 m/S 610 mmHg 40%

    Morgen, 23 April, Dienstag

    Zeit Temperatur Niederschläge Wind Luftdruck Luftfeuchtigkeit
    00:00 +16°C° 0 mm 1 m/S 610 mmHg 41%
    01:00 +15°C° 0 mm 1 m/S 610 mmHg 42%
    02:00 +15°C° 0 mm 1 m/S 609 mmHg 42%
    03:00 +15°C° 0 mm 1 m/S 609 mmHg 42%
    04:00 +14°C° 0 mm 1 m/S 609 mmHg 42%
    05:00 +14°C° 0 mm 1 m/S 608 mmHg 43%
    06:00 +15°C° 0 mm 1 m/S 609 mmHg 39%
    07:00 +16°C° 0 mm 1 m/S 610 mmHg 36%
    08:00 +16°C° 0 mm 1 m/S 610 mmHg 33%
    09:00 +18°C° 0 mm 1 m/S 610 mmHg 32%
    10:00 +18°C° 0 mm 2 m/S 611 mmHg 31%
    11:00 +19°C° 0 mm 2 m/S 611 mmHg 30%
    12:00 +20°C° 0 mm 2 m/S 611 mmHg 29%
    13:00 +20°C° 0 mm 2 m/S 611 mmHg 29%
    14:00 +21°C° 0 mm 2 m/S 611 mmHg 28%
    15:00 +21°C° 0.1 mm 2 m/S 610 mmHg 29%
    16:00 +21°C° 0.1 mm 2 m/S 610 mmHg 31%
    17:00 +21°C° 0.1 mm 2 m/S 610 mmHg 32%
    18:00 +20°C° 0.2 mm 2 m/S 610 mmHg 36%
    19:00 +19°C° 0.2 mm 2 m/S 610 mmHg 40%
    20:00 +18°C° 0.2 mm 2 m/S 610 mmHg 44%
    21:00 +17°C° 0.3 mm 2 m/S 610 mmHg 46%
    22:00 +16°C° 0.3 mm 2 m/S 610 mmHg 48%
    23:00 +15°C° 0.3 mm 2 m/S 610 mmHg 49%

    übermorgen, 24 April, Mittwoch

    Zeit Temperatur Niederschläge Wind Luftdruck Luftfeuchtigkeit
    00:00 +15°C° 0.1 mm 2 m/S 609 mmHg 51%
    01:00 +14°C° 0.1 mm 2 m/S 609 mmHg 53%
    02:00 +13°C° 0.1 mm 2 m/S 608 mmHg 56%
    03:00 +13°C° 0.1 mm 2 m/S 608 mmHg 58%
    04:00 +13°C° 0.1 mm 2 m/S 608 mmHg 59%
    05:00 +12°C° 0.1 mm 1 m/S 608 mmHg 61%
    06:00 +13°C° 0.1 mm 2 m/S 608 mmHg 62%
    07:00 +13°C° 0.1 mm 2 m/S 608 mmHg 63%
    08:00 +13°C° 0.1 mm 2 m/S 609 mmHg 63%
    09:00 +14°C° 0.1 mm 2 m/S 609 mmHg 61%
    10:00 +15°C° 0.1 mm 2 m/S 609 mmHg 59%
    11:00 +16°C° 0.1 mm 2 m/S 610 mmHg 57%
    12:00 +16°C° 0.9 mm 2 m/S 609 mmHg 59%
    13:00 +16°C° 0.9 mm 3 m/S 609 mmHg 61%
    14:00 +16°C° 0.9 mm 3 m/S 609 mmHg 63%
    15:00 +15°C° 0.6 mm 2 m/S 608 mmHg 64%
    16:00 +15°C° 0.6 mm 2 m/S 608 mmHg 65%
    17:00 +15°C° 0.6 mm 2 m/S 608 mmHg 66%
    18:00 +14°C° 0.3 mm 2 m/S 608 mmHg 70%
    19:00 +14°C° 0.3 mm 2 m/S 608 mmHg 74%
    20:00 +12°C° 0.3 mm 3 m/S 608 mmHg 78%
    21:00 +13°C° 0.1 mm 2 m/S 608 mmHg 77%
    22:00 +13°C° 0.1 mm 2 m/S 608 mmHg 76%
    23:00 +13°C° 0.1 mm 2 m/S 608 mmHg 76%

    25 April, Donnerstag

    Zeit Temperatur Niederschläge Wind Luftdruck Luftfeuchtigkeit
    00:00 +12°C° 0.1 mm 2 m/S 608 mmHg 75%
    01:00 +12°C° 0.1 mm 2 m/S 608 mmHg 74%
    02:00 +12°C° 0.1 mm 2 m/S 608 mmHg 72%
    03:00 +12°C° 0 mm 1 m/S 608 mmHg 72%
    04:00 +11°C° 0 mm 1 m/S 607 mmHg 71%
    05:00 +11°C° 0 mm 1 m/S 607 mmHg 71%
    06:00 +11°C° 0 mm 1 m/S 608 mmHg 67%
    07:00 +12°C° 0 mm 2 m/S 608 mmHg 63%
    08:00 +12°C° 0 mm 2 m/S 609 mmHg 59%
    09:00 +14°C° 0 mm 2 m/S 609 mmHg 54%
    10:00 +15°C° 0 mm 2 m/S 610 mmHg 48%
    11:00 +17°C° 0 mm 2 m/S 610 mmHg 43%
    12:00 +17°C° 0.2 mm 3 m/S 610 mmHg 41%
    13:00 +18°C° 0.2 mm 4 m/S 610 mmHg 39%
    14:00 +18°C° 0.2 mm 4 m/S 610 mmHg 36%
    15:00 +18°C° 0.4 mm 4 m/S 610 mmHg 37%
    16:00 +18°C° 0.4 mm 4 m/S 610 mmHg 38%
    17:00 +18°C° 0.4 mm 3 m/S 609 mmHg 38%
    18:00 +16°C° 0.2 mm 3 m/S 609 mmHg 42%
    19:00 +14°C° 0.2 mm 3 m/S 609 mmHg 46%
    20:00 +13°C° 0.2 mm 3 m/S 609 mmHg 50%
    21:00 +13°C° 0 mm 2 m/S 609 mmHg 51%
    22:00 +13°C° 0 mm 2 m/S 609 mmHg 52%
    23:00 +12°C° 0 mm 2 m/S 608 mmHg 53%

    26 April, Freitag

    Zeit Temperatur Niederschläge Wind Luftdruck Luftfeuchtigkeit
    00:00 +12°C° 0 mm 2 m/S 608 mmHg 53%
    01:00 +10°C° 0 mm 2 m/S 608 mmHg 53%
    02:00 +11°C° 0 mm 1 m/S 607 mmHg 52%
    03:00 +11°C° 0 mm 1 m/S 607 mmHg 53%
    04:00 +10°C° 0 mm 1 m/S 607 mmHg 53%
    05:00 +10°C° 0 mm 1 m/S 607 mmHg 53%
    06:00 +11°C° 0 mm 1 m/S 608 mmHg 49%
    07:00 +12°C° 0 mm 1 m/S 608 mmHg 45%
    08:00 +13°C° 0 mm 1 m/S 609 mmHg 42%
    09:00 +14°C° 0 mm 1 m/S 609 mmHg 39%
    10:00 +15°C° 0 mm 1 m/S 610 mmHg 37%
    11:00 +16°C° 0 mm 2 m/S 611 mmHg 34%
    12:00 +17°C° 0 mm 2 m/S 611 mmHg 32%
    13:00 +18°C° 0 mm 2 m/S 611 mmHg 30%
    14:00 +18°C° 0 mm 3 m/S 610 mmHg 29%
    15:00 +18°C° 0.1 mm 3 m/S 610 mmHg 30%
    16:00 +18°C° 0.1 mm 3 m/S 610 mmHg 31%
    17:00 +17°C° 0.1 mm 3 m/S 610 mmHg 32%
    18:00 +16°C° 0.1 mm 3 m/S 610 mmHg 34%
    19:00 +14°C° 0.1 mm 3 m/S 610 mmHg 36%
    20:00 +13°C° 0.1 mm 3 m/S 610 mmHg 39%
    21:00 +12°C° 0 mm 3 m/S 610 mmHg 40%
    22:00 +13°C° 0 mm 2 m/S 610 mmHg 41%
    23:00 +12°C° 0 mm 2 m/S 610 mmHg 42%

    27 April, Samstag

    Zeit Temperatur Niederschläge Wind Luftdruck Luftfeuchtigkeit
    00:00 +12°C° 0 mm 2 m/S 609 mmHg 43%
    01:00 +11°C° 0 mm 1 m/S 609 mmHg 44%
    02:00 +11°C° 0 mm 1 m/S 608 mmHg 45%
    03:00 +10°C° 0 mm 1 m/S 608 mmHg 45%
    04:00 +10°C° 0 mm 1 m/S 608 mmHg 46%
    05:00 +10°C° 0 mm 1 m/S 608 mmHg 46%
    06:00 +11°C° 0 mm 1 m/S 608 mmHg 43%
    07:00 +12°C° 0 mm 1 m/S 609 mmHg 39%
    08:00 +13°C° 0 mm 1 m/S 610 mmHg 36%
    09:00 +14°C° 0 mm 1 m/S 610 mmHg 34%
    10:00 +15°C° 0 mm 1 m/S 610 mmHg 31%
    11:00 +16°C° 0 mm 1 m/S 611 mmHg 29%
    12:00 +17°C° 0 mm 2 m/S 610 mmHg 28%
    13:00 +17°C° 0 mm 2 m/S 610 mmHg 27%
    14:00 +18°C° 0 mm 2 m/S 610 mmHg 26%
    15:00 +18°C° 0.1 mm 2 m/S 610 mmHg 26%
    16:00 +18°C° 0.1 mm 3 m/S 609 mmHg 27%
    17:00 +18°C° 0.1 mm 3 m/S 609 mmHg 27%
    18:00 +16°C° 0.1 mm 3 m/S 609 mmHg 29%
    19:00 +14°C° 0.1 mm 3 m/S 609 mmHg 32%
    20:00 +13°C° 0.1 mm 3 m/S 609 mmHg 34%
    21:00 +13°C° 0 mm 3 m/S 609 mmHg 35%
    22:00 +13°C° 0 mm 2 m/S 609 mmHg 36%
    23:00 +13°C° 0 mm 2 m/S 609 mmHg 36%
    Mehr zeigen